Weather History for Amsterdam, Netherlands

Change the Weather History Date:

Sunday, February 3, 2013

  Actual Average Record
Temperature  
Mean Temperature 40 °F -  
Max Temperature 45 °F 44 °F 59 °F (2004)
Min Temperature 34 °F 34 °F 14 °F (2012)
Degree Days  
Heating Degree Days 26    
Moisture  
Dew Point 36 °F    
Average Humidity 85    
Maximum Humidity 93    
Minimum Humidity 61    
Precipitation  
Precipitation 0.01 in - - ()
Sea Level Pressure  
Sea Level Pressure 29.95 in    
Wind  
Wind Speed 12 mph ()    
Max Wind Speed 26 mph    
Max Gust Speed 41 mph    
Visibility 7.0 miles    
Events Rain    
Averages and records for this station are not official NWS values.
T = Trace of Precipitation, MM = Missing Value Source: Averaged Metar Reports

Daily Weather History Graph

Daily Weather History Graph

Search for Another Location

Airport:

Trip Planner

Search our weather history database for the weather conditions in past years. The results will help you decide how hot, cold, wet, or windy it might be!

Date:

Astronomy

Feb. 03, 2013 Rise Set
Actual Time 8:18 AM CET 5:31 PM CET
Civil Twilight 7:41 AM CET 6:08 PM CET
Nautical Twilight 7:01 AM CET 6:49 PM CET
Astronomical Twilight 6:21 AM CET 7:28 PM CET
Moon 1:28 AM CET (2/3) 10:55 AM CET (2/3)
Length of Visible Light 10h 26m
Length of Day
9h 13m
Waning Gibbous, 51% of the Moon is Illuminated
Feb 3
Waning Gibbous
Feb 3
Last Quarter
Feb 10
New
Feb 17
First Quarter
Feb 25
Full

Hourly Weather History & Observations

Time (CET) Temp. Windchill Dew Point Humidity Pressure Visibility Wind Dir Wind Speed Gust Speed Precip Events Conditions
12:25 AM 37.4 °F 31.4 °F 33.8 °F 87% 30.04 in 6.2 mi NNW 8.1 mph - N/A   Scattered Clouds
12:55 AM 35.6 °F 29.9 °F 33.8 °F 93% 30.04 in 6.2 mi NNW 6.9 mph - N/A   Scattered Clouds
1:00 AM 36 °F - 34 °F 87% 30.06 in 8 mi NNW 6.7 mph - -   Partly Cloudy
1:25 AM 37.4 °F 32.8 °F 33.8 °F 87% 30.04 in 6.2 mi NW 5.8 mph - N/A   Scattered Clouds
1:55 AM 39.2 °F 33.6 °F 35.6 °F 87% 30.06 in 6.2 mi NW 8.1 mph - N/A   Scattered Clouds
2:25 AM 39.2 °F 32.0 °F 33.8 °F 81% 30.06 in 6.2 mi NNW 11.5 mph - N/A   Mostly Cloudy
2:55 AM 39.2 °F 33.0 °F 32.0 °F 75% 30.06 in 6.2 mi NW 9.2 mph - N/A   Mostly Cloudy
3:25 AM 37.4 °F 29.8 °F 33.8 °F 87% 30.09 in 6.2 mi NW 11.5 mph - N/A   Mostly Cloudy
3:55 AM 35.6 °F 29.9 °F 32.0 °F 87% 30.09 in 6.2 mi NNW 6.9 mph - N/A   Scattered Clouds
4:00 AM 35 °F - 32 °F 83% 30.10 in 11 mi NNW 6.7 mph - -   Partly Cloudy
4:25 AM 35.6 °F 31.7 °F 32.0 °F 87% 30.09 in 6.2 mi WNW 4.6 mph - N/A   Scattered Clouds
4:55 AM 33.8 °F 28.6 °F 32.0 °F 93% 30.09 in 6.2 mi West 5.8 mph - N/A   Scattered Clouds
5:25 AM 35.6 °F 29.9 °F 32.0 °F 87% 30.09 in 6.2 mi West 6.9 mph - N/A   Scattered Clouds
5:55 AM 35.6 °F 29.2 °F 32.0 °F 87% 30.09 in 6.2 mi West 8.1 mph - N/A   Partly Cloudy
6:25 AM 35.6 °F 29.2 °F 32.0 °F 87% 30.06 in 6.2 mi West 8.1 mph - N/A   Partly Cloudy
6:55 AM 37.4 °F 31.4 °F 32.0 °F 81% 30.04 in 6.2 mi West 8.1 mph - N/A   Scattered Clouds
7:00 AM 38 °F - 33 °F 76% 30.06 in 17 mi West 8.9 mph - -   Partly Cloudy
7:25 AM 37.4 °F 30.8 °F 33.8 °F 87% 30.04 in 6.2 mi WSW 9.2 mph - N/A   Partly Cloudy
7:55 AM 37.4 °F 30.8 °F 33.8 °F 87% 30.04 in 6.2 mi WSW 9.2 mph - N/A   Scattered Clouds
8:25 AM 39.2 °F 32.5 °F 35.6 °F 87% 30.04 in 6.2 mi WSW 10.4 mph - N/A   Scattered Clouds
8:55 AM 39.2 °F 30.8 °F 33.8 °F 81% 30.06 in 6.2 mi West 15.0 mph - N/A   Scattered Clouds
9:25 AM 39.2 °F 30.8 °F 32.0 °F 75% 30.04 in 6.2 mi WSW 15.0 mph - N/A   Partly Cloudy
9:55 AM 39.2 °F 30.5 °F 32.0 °F 75% 30.01 in 6.2 mi WSW 16.1 mph - N/A   Partly Cloudy
10:00 AM 40 °F - 31 °F 61% 30.02 in 19 mi WSW 15.7 mph - -   Scattered Clouds
10:25 AM 39.2 °F 29.3 °F 30.2 °F 70% 30.01 in 6.2 mi WSW 20.7 mph - N/A   Partly Cloudy
10:55 AM 39.2 °F 29.3 °F 30.2 °F 70% 30.01 in 6.2 mi WSW 20.7 mph 32.2 mph N/A   Partly Cloudy
11:25 AM 41.0 °F 31.4 °F 30.2 °F 65% 30.01 in 6.2 mi WSW 21.9 mph - N/A   Partly Cloudy
11:55 AM 41.0 °F 31.6 °F 32.0 °F 70% 29.98 in 6.2 mi WSW 20.7 mph - N/A   Partly Cloudy
12:25 PM 41.0 °F 30.7 °F 33.8 °F 76% 29.95 in 6.2 mi WSW 25.3 mph - N/A   Scattered Clouds
12:55 PM 41.0 °F 31.4 °F 33.8 °F 76% 29.95 in 6.2 mi SW 21.9 mph - N/A   Scattered Clouds
1:00 PM 41 °F - 33 °F 65% 29.94 in 19 mi SW 22.4 mph - -   Partly Cloudy
1:55 PM 41.0 °F 30.5 °F 35.6 °F 81% 29.89 in 6.2 mi SW 26.5 mph - N/A   Overcast
2:25 PM 41.0 °F 30.7 °F 37.4 °F 87% 29.86 in - WSW 25.3 mph - N/A Rain Rain
2:55 PM 41.0 °F 30.7 °F 39.2 °F 93% 29.83 in 1.7 mi WSW 25.3 mph 36.8 mph N/A Rain Rain
3:25 PM 41.0 °F 30.7 °F 39.2 °F 93% 29.83 in 6.2 mi WSW 25.3 mph 41.4 mph N/A   Light Drizzle
3:55 PM 42.8 °F 32.9 °F 39.2 °F 87% 29.83 in 6.2 mi WSW 26.5 mph 38.0 mph N/A   Mostly Cloudy
4:00 PM 42 °F - 40 °F 89% 29.85 in 7 mi WSW 24.6 mph - - Rain Drizzle
4:25 PM 42.8 °F 33.5 °F 41.0 °F 93% 29.83 in 6.2 mi WSW 23.0 mph 34.5 mph N/A   Mostly Cloudy
4:55 PM 42.8 °F 33.1 °F 41.0 °F 93% 29.83 in 6.2 mi WSW 25.3 mph - N/A   Mostly Cloudy
5:25 PM 42.8 °F 33.3 °F 41.0 °F 93% 29.83 in 6.2 mi WSW 24.2 mph 36.8 mph N/A   Mostly Cloudy
5:55 PM 44.6 °F 35.9 °F 41.0 °F 87% 29.83 in 6.2 mi WSW 23.0 mph - N/A   Mostly Cloudy
6:25 PM 44.6 °F 36.1 °F 41.0 °F 87% 29.83 in 6.2 mi West 21.9 mph - N/A   Mostly Cloudy
6:55 PM 44.6 °F 36.4 °F 41.0 °F 87% 29.83 in 6.2 mi West 20.7 mph - N/A   Mostly Cloudy
7:00 PM 44 °F - 41 °F 87% 29.84 in 9 mi West 20.1 mph - - Rain Drizzle
7:25 PM 44.6 °F 36.4 °F 42.8 °F 93% 29.83 in 6.2 mi West 20.7 mph - N/A Rain Light Drizzle
7:55 PM 44.6 °F 36.6 °F 42.8 °F 93% 29.83 in 6.2 mi West 19.6 mph - N/A Rain Light Rain
8:25 PM 44.6 °F 36.6 °F 42.8 °F 93% 29.83 in 6.2 mi West 19.6 mph - N/A Rain Light Rain
8:55 PM 44.6 °F 36.9 °F 42.8 °F 93% 29.83 in 6.2 mi West 18.4 mph - N/A Rain Light Rain
9:25 PM 44.6 °F 36.4 °F 42.8 °F 93% 29.80 in 6.2 mi West 20.7 mph - N/A Rain Light Rain
9:55 PM 44.6 °F 37.2 °F 42.8 °F 93% 29.83 in 6.2 mi West 17.3 mph - N/A Rain Light Rain
10:00 PM 45 °F - 42 °F 87% 29.83 in 9 mi West 17.9 mph - - Rain Light Drizzle
10:25 PM 44.6 °F 36.6 °F 42.8 °F 93% 29.80 in 6.2 mi West 19.6 mph - N/A Rain Light Rain
10:55 PM 44.6 °F 36.9 °F 42.8 °F 93% 29.80 in 6.2 mi West 18.4 mph - N/A   Partly Cloudy
11:25 PM 44.6 °F 36.9 °F 42.8 °F 93% 29.80 in 6.2 mi West 18.4 mph - N/A   Scattered Clouds
11:55 PM 44.6 °F 36.6 °F 42.8 °F 93% 29.80 in 6.2 mi WSW 19.6 mph - N/A   Partly Cloudy